map of AER home
Great Circle Mapper logo
AER - Airport
Location
City:  Sochi, Krasnodarakiy, Russian Federation (Russia)
ICAO / IATA:URSS / AER

Details
Type:Airport (Aerodrome, Airfield)
Use:Public/Civil
Latitude:4327'00"N (43.449928)
Longitude:3957'24"E (39.956589)
Datum:WGS 1984
Elevation:89 ft (27 m)
Variation:6.72E (WMM2015 magnetic declination)
0.09 annual change
Runways:2
Longest:9482 × 164 ft (2890 × 50 m), paved

Time
Time Zone:UTC+3 (DST+4)

Weather
METAR:URSS 300130Z 00000MPS 9999 BKN230 12/07 Q1004 NOSIG RMK R02/04002MPS QFE752 06000070 02//////
TAF:URSS 292241Z 3000/3024 07006MPS 9999 BKN100
BECMG 3008/3009 28005G10MPS BKN020CB OVC100
TEMPO 3009/3024 VRB07G14MPS 2200 -TSRA BKN006 BKN020CB OVC100

Related Locations
Nearby:
Farthest:NTAV: 11014 mi / 17726 km
Raivavae, Tubuai Islands, Austral Islands, PF

Find:

   beyond  
but within

Other Information
Maps:
NOTAMs:
Links:
Sources:

  
flag of Russian Federation (Russia)
flag of Krasnodarakiy
  

Sectional Chart

Flight Planning
at skyvector.com

Satellite Image

Google Maps Satellite View

 

Copyright © 2004-2015 Karl L. Swartz. All rights reserved.
The Great Circle Mapper name and logo are trademarks of the Great Circle Mapper.
All other trademarks mentioned herein belong to their respective owners.
Please see credits for attibutions and further copyright information.

  Follow gcmap on Facebook Follow gcmap on Twitter Follow gcmap on Google+

hCard Microformat

Geo Microformat